WGS 5 (USA 243)

导读

WGS 5(USA 243)是美国于2013年5月25日发射的宽带全球卫星通信系统卫星,属于WGS BlockII批次,基于波音-702HP平台建造,发射质量约5900千克,设计寿命14年。该卫星搭载X波段和Ka波段转发器,相比早期型号新增两条400兆赫兹独立信道,通信容量提升至6吉比特/秒,是美国当前主力军用宽带通信卫星,可为美军全球作战、无人机通信提供高速通信支持,代表了美国军用宽带通信的顶尖水平。

Basic Information
目录编号:
39168
目录名称:
WGS 5 (USA 243)
国际标识:
2013-024A
轨道中心:
EARTH
卫星名称:
WGS 5 (USA 243)
卫星全名:
--
卫星状态:
在轨 (已飞行4798 天)
发射日期:
2013-05-25 UTC
国别 :
美国 (US)
星等 :
--
Orbit Information
数据来源 国际轨道数据 AOE轨道数据
星历时间 2026-07-14T04:03:26+0800
10小时前
查看轨道信息
2026-07-14T08:00:00+0800
6小时前
查看轨道信息
半长轴 42165.569km 42164.981km
偏心率 0.0000331 0.0000476
轨道倾角 0.026° 0.027°
近地点辐角 197.019° 210.995°
升交点赤经 55.670° 58.061°
平近点角 287.383° 330.316°
近地点 35786.036km 35784.836km
远地点 35788.828km 35788.852km
周期 1436.140分钟 1436.110分钟
每日圈数 1.002688 1.002709
Detailed Information
使用方式:
暂无
2D Orbit Map
3D Orbit Map
Orbit Altitude Analysis Chart
Orbit Inclination Analysis Chart
Orbit Comprehensive Analysis Chart
View Comprehensive Chart